Change the Weather History Date:

Friday, January 25, 2013

  Actual Average Record
Temperature  
Mean Temperature 28 °F -  
Max Temperature 38 °F 28 °F 38 °F (2013)
Min Temperature 18 °F 13 °F -25 °F (2005)
Degree Days  
Heating Degree Days 37    
Moisture  
Dew Point 27 °F    
Average Humidity 86    
Maximum Humidity 100    
Minimum Humidity 68    
Precipitation  
Precipitation 0.00 in 0.03 in - ()
Sea Level Pressure  
Sea Level Pressure 29.94 in    
Wind  
Wind Speed 5 mph ()    
Max Wind Speed 15 mph    
Max Gust Speed -    
Visibility 5.9 miles    
Events Snow    
Averages and records for this station are not official NWS values.
T = Trace of Precipitation, MM = Missing Value Source: Averaged Metar Reports

Daily Weather History Graph

Daily Weather History Graph

Search for Another Location

Airport or City:

Trip Planner

Search our weather history database for the weather conditions in past years. The results will help you decide how hot, cold, wet, or windy it might be!

Date:

Astronomy

Jan. 25, 2013 Rise Set
Actual Time 6:29 AM EET 4:26 PM EET
Civil Twilight 6:00 AM EET 4:55 PM EET
Nautical Twilight 5:27 AM EET 5:27 PM EET
Astronomical Twilight 4:55 AM EET 6:00 PM EET
Moon 3:02 PM EET (1/25) 4:54 AM EET (1/25)
Length of Visible Light 10h 54m
Length of Day
9h 56m
Waxing Gibbous, 97% of the Moon is Illuminated
Jan 25
Waxing Gibbous
Jan 27
Full
Feb 3
Last Quarter
Feb 10
New
Feb 17
First Quarter

Hourly Weather History & Observations

Time (EET) Temp. Windchill Dew Point Humidity Pressure Visibility Wind Dir Wind Speed Gust Speed Precip Events Conditions
12:20 AM 21.2 °F 14.9 °F 19.4 °F 93% 30.01 in 6.2 mi East 4.6 mph - N/A   Mostly Cloudy
12:50 AM 21.2 °F - 19.4 °F 93% 30.01 in 6.2 mi Variable 1.2 mph - N/A   Mostly Cloudy
1:20 AM 19.4 °F 12.8 °F 17.6 °F 93% 30.01 in 6.2 mi WSW 4.6 mph - N/A   Mostly Cloudy
1:50 AM 23.0 °F - 19.4 °F 86% 30.01 in 6.2 mi WNW 2.3 mph - N/A   Mostly Cloudy
2:00 AM 22 °F - 20 °F 89%  in 12 mi WNW 2.3 mph - -   Partly Cloudy
2:20 AM 23.0 °F - 19.4 °F 86% 30.01 in 6.2 mi North 2.3 mph - N/A   Mostly Cloudy
2:50 AM 21.2 °F - 19.4 °F 93% 29.98 in 6.2 mi NW 1.2 mph - N/A   Mostly Cloudy
3:20 AM 21.2 °F 16.4 °F 19.4 °F 93% 29.98 in 6.2 mi West 3.5 mph - N/A   Mostly Cloudy
3:50 AM 23.0 °F - 19.4 °F 86% 29.98 in 6.2 mi Variable 2.3 mph - N/A   Mostly Cloudy
4:20 AM 23.0 °F - 21.2 °F 93% 29.98 in 6.2 mi Calm Calm - N/A   Mostly Cloudy
4:50 AM 24.8 °F - 21.2 °F 86% 29.98 in 5.0 mi Calm Calm - N/A Snow Light Snow
5:20 AM 24.8 °F 19.1 °F 23.0 °F 93% 29.98 in 6.2 mi North 4.6 mph - N/A Snow Light Snow
5:50 AM 24.8 °F 19.1 °F 23.0 °F 93% 29.98 in 6.2 mi ESE 4.6 mph - N/A Snow Light Snow
6:20 AM 26.6 °F - 24.8 °F 93% 29.98 in - Variable 1.2 mph - N/A Snow Light Snow
6:50 AM 28.4 °F - 26.6 °F 93% 29.98 in - ESE 2.3 mph - N/A Snow Light Snow
7:20 AM 26.6 °F - 26.6 °F 100% 29.98 in - Variable 1.2 mph - N/A Snow Light Snow
7:50 AM 26.6 °F 22.6 °F 26.6 °F 100% 29.98 in - North 3.5 mph - N/A Snow Light Snow
8:00 AM 27 °F - 27 °F 98%  in 3 mi North 3.5 mph - - Snow Light Snow
8:20 AM 26.6 °F 21.2 °F 26.6 °F 100% 29.98 in - NNE 4.6 mph - N/A Snow Light Snow
8:50 AM 26.6 °F - 26.6 °F 100% 29.98 in - Variable 2.3 mph - N/A   Mostly Cloudy
9:20 AM 28.4 °F - 28.4 °F 100% 29.98 in - Variable 2.3 mph - N/A   Mostly Cloudy
9:50 AM 30.2 °F - 28.4 °F 93% 29.98 in - Variable 2.3 mph - N/A   Mostly Cloudy
10:20 AM 30.2 °F 25.4 °F 28.4 °F 93% 29.98 in - NNE 4.6 mph - N/A   Mostly Cloudy
10:50 AM 30.2 °F 25.4 °F 30.2 °F 100% 29.95 in - NNE 4.6 mph - N/A   Mostly Cloudy
11:20 AM 33.8 °F 29.6 °F 30.2 °F 87% 29.92 in - ENE 4.6 mph - N/A   Mostly Cloudy
11:50 AM 32.0 °F 24.8 °F 30.2 °F 93% 29.92 in - ENE 8.1 mph - N/A   Mostly Cloudy
12:20 PM 39.2 °F 37.0 °F 30.2 °F 70% 29.89 in - ESE 3.5 mph - N/A   Mostly Cloudy
12:50 PM 37.4 °F 34.9 °F 30.2 °F 75% 29.86 in 5.0 mi Variable 3.5 mph - N/A   Mostly Cloudy
1:20 PM 35.6 °F - 30.2 °F 81% 29.86 in 5.0 mi Variable 1.2 mph - N/A   Mostly Cloudy
1:50 PM 37.4 °F 31.4 °F 30.2 °F 75% 29.86 in 5.0 mi SSW 8.1 mph - N/A   Mostly Cloudy
2:00 PM 37 °F - 30 °F 68%  in 5 mi SW 8.1 mph - -   Mist
2:20 PM 37.4 °F 32.1 °F 30.2 °F 75% 29.86 in 5.0 mi WSW 6.9 mph - N/A   Mostly Cloudy
2:50 PM 37.4 °F 29.3 °F 32.0 °F 81% 29.86 in 5.0 mi West 12.7 mph - N/A   Mostly Cloudy
3:20 PM 37.4 °F 28.5 °F 30.2 °F 75% 29.86 in 5.0 mi SW 15.0 mph - N/A   Mostly Cloudy
3:50 PM 37.4 °F 31.4 °F 30.2 °F 75% 29.86 in 5.0 mi SW 8.1 mph - N/A   Mostly Cloudy
4:20 PM 37.4 °F 29.3 °F 30.2 °F 75% 29.86 in 5.0 mi SW 12.7 mph - N/A   Mostly Cloudy
4:50 PM 35.6 °F 26.6 °F 30.2 °F 81% 29.86 in 5.0 mi West 13.8 mph - N/A   Mostly Cloudy
5:20 PM 35.6 °F 27.1 °F 30.2 °F 81% 29.89 in 5.0 mi WSW 12.7 mph - N/A   Mostly Cloudy
5:50 PM 35.6 °F 29.2 °F 30.2 °F 81% 29.89 in 5.0 mi WSW 8.1 mph - N/A   Mostly Cloudy
6:20 PM 35.6 °F 29.9 °F 30.2 °F 81% 29.89 in 6.2 mi WNW 6.9 mph - N/A   Mostly Cloudy
6:50 PM 35.6 °F 26.6 °F 30.2 °F 81% 29.89 in 6.2 mi West 13.8 mph - N/A   Mostly Cloudy
7:20 PM 35.6 °F 27.1 °F 30.2 °F 81% 29.89 in 6.2 mi West 12.7 mph - N/A   Mostly Cloudy
7:50 PM 35.6 °F 26.6 °F 30.2 °F 81% 29.89 in 6.2 mi SW 13.8 mph - N/A   Scattered Clouds
8:00 PM 36 °F - 31 °F 73%  in 6 mi WSW 13.8 mph - -   Partly Cloudy
8:20 PM 35.6 °F 26.2 °F 30.2 °F 81% 29.92 in 6.2 mi SW 15.0 mph - N/A   Scattered Clouds
8:50 PM 35.6 °F 27.1 °F 30.2 °F 81% 29.92 in 6.2 mi WSW 12.7 mph - N/A   Scattered Clouds
9:20 PM 35.6 °F 29.9 °F 32.0 °F 87% 29.92 in 6.2 mi SW 6.9 mph - N/A   Scattered Clouds
9:50 PM 35.6 °F 29.9 °F 30.2 °F 81% 29.92 in 6.2 mi WSW 6.9 mph - N/A   Scattered Clouds
10:20 PM 37.4 °F 29.8 °F 30.2 °F 75% 29.95 in 6.2 mi WSW 11.5 mph - N/A   Scattered Clouds
10:50 PM 37.4 °F 28.9 °F 30.2 °F 75% 29.95 in 6.2 mi WSW 13.8 mph - N/A   Scattered Clouds
11:20 PM 35.6 °F 27.1 °F 30.2 °F 81% 29.95 in 6.2 mi WSW 12.7 mph - N/A   Scattered Clouds
11:50 PM 35.6 °F 26.2 °F 30.2 °F 81% 29.95 in 6.2 mi WSW 15.0 mph - N/A   Scattered Clouds